Location: Newark
(52.2090°N, 4.1550°W)
Time: 08:33:57
(UTC+00:00)

SR - Visible Passes

Search period start: 19 September 2019 00:00
Search period end: 29 September 2019 00:00
Orbit: 576 x 880 km, 66.7° (Epoch: 18 September)

Date Brightness Start Highest point End Pass type
(mag) Time Alt. Az. Time Alt. Az. Time Alt. Az.
20 Sep ? 04:38:42 10° SE 04:41:14 14° ESE 04:43:50 10° ENE visible
22 Sep ? 04:39:38 10° SSE 04:43:30 25° ESE 04:47:40 10° ENE visible
23 Sep ? 03:52:01 10° SE 03:54:22 14° ESE 03:56:49 10° ENE visible
24 Sep ? 04:41:26 10° S 04:45:56 42° ESE 04:50:53 10° NE visible
25 Sep ? 03:52:50 10° SSE 03:56:39 24° ESE 04:00:44 10° ENE visible
26 Sep ? 03:05:21 10° SE 03:07:32 13° ESE 03:09:46 10° ENE visible
26 Sep ? 04:43:43 10° SSW 04:48:32 71° SE 04:53:51 10° NE visible
27 Sep ? 03:55:54 18° S 03:59:04 40° ESE 04:03:59 10° NE visible
27 Sep ? 05:36:21 10° WSW 05:41:08 46° NW 05:46:23 10° NNE visible
28 Sep ? 03:08:03 19° SE 03:09:47 23° ESE 03:13:48 10° ENE visible
28 Sep ? 04:47:29 17° SW 04:51:18 73° NW 04:56:43 10° NE visible
